GW1828 Weather Reports


Display with metric or nautical units.
time (UTC)temp
F
wind
direction
speed
MPH
gust
MPH
rain 1hr
in
rain 24hr
in
rain mn
in
humidity
%
barometer
mb
20260507153032 74 0 4.0 7.0 0.00 0.26 0.26 56 1012.3
20260507152531 74 7 5.0 11.0 0.00 0.26 0.26 54 1012.4
20260507152031 74 345 4.0 11.0 0.00 0.26 0.26 54 1012.4
20260507151530 74 23 2.0 5.0 0.00 0.26 0.26 53 1012.4
20260507151031 74 357 3.0 5.0 0.00 0.26 0.26 53 1012.5
20260507150532 74 24 2.0 6.0 0.00 0.26 0.26 52 1012.6
20260507150031 74 44 4.0 6.0 0.00 0.26 0.26 52 1012.5
20260507145526 74 42 3.0 7.0 0.00 0.26 0.26 50 1012.4
20260507145024 75 66 3.0 10.0 0.00 0.26 0.26 49 1012.3
20260507144525 75 42 2.0 10.0 0.00 0.26 0.26 50 1012.3
20260507144022 75 75 4.0 9.0 0.00 0.26 0.26 48 1012.4
20260507143818 75 87 3.0 9.0 0.00 0.26 0.26 46 1012.4
20260507143022 76 116 3.0 9.0 0.00 0.26 0.26 46 1012.5
20260507142523 76 334 3.0 6.0 0.00 0.26 0.26 45 1012.6
20260507142021 76 45 2.0 5.0 0.00 0.26 0.26 45 1012.6
20260507141520 76 47 1.0 4.0 0.00 0.26 0.26 44 1012.8
20260507141313 77 353 2.0 3.0 0.00 0.26 0.26 45 1012.8
20260507140517 76 162 1.0 4.0 0.00 0.26 0.26 46 1012.9
20260507140019 75 162 2.0 4.0 0.00 0.26 0.26 46 1012.9
20260507135516 75 125 2.0 4.0 0.00 0.26 0.26 47 1013.0
20260507135017 75 121 2.0 4.0 0.00 0.26 0.26 45 1013.0
20260507134809 75 347 1.0 4.0 0.00 0.26 0.26 46 1013.0
20260507134014 75 347 2.0 4.0 0.00 0.26 0.26 45 1013.1
20260507133513 75 248 1.0 6.0 0.00 0.26 0.26 45 1013.1
20260507133313 75 175 3.0 10.0 0.00 0.26 0.26 44 1013.2
20260507132806 75 207 6.0 10.0 0.00 0.26 0.26 45 1013.2
20260507132016 75 192 3.0 6.0 0.00 0.26 0.26 47 1013.2
20260507131516 75 206 2.0 5.0 0.00 0.26 0.26 45 1013.2
20260507131014 74 117 0.0 6.0 0.00 0.26 0.26 45 1013.3
20260507130513 75 0 4.0 6.0 0.00 0.26 0.26 45 1013.3
20260507130014 75 238 1.0 3.0 0.00 0.26 0.26 44 1013.4
20260507125513 75 283 2.0 4.0 0.00 0.26 0.26 45 1013.5
20260507125013 75 21 3.0 9.0 0.00 0.26 0.26 45 1013.6
20260507124512 75 183 1.0 9.0 0.00 0.26 0.26 44 1013.7
20260507124019 75 285 2.0 9.0 0.00 0.26 0.26 45 1013.8
20260507123624 75 161 2.0 7.0 0.00 0.26 0.26 45 1013.8
20260507123557 75 182 3.0 9.0 0.00 0.26 0.26 46 1013.8
20260507122807 75 227 3.0 7.0 0.00 0.26 0.26 45 1013.8
20260507122010 75 157 1.0 5.0 0.00 0.26 0.26 46 1013.7
20260507121514 75 173 2.0 6.0 0.00 0.26 0.26 45 1013.8
20260507121011 74 161 2.0 6.0 0.00 0.26 0.26 45 1013.8
20260507120511 74 166 2.0 7.0 0.00 0.26 0.26 47 1013.9
20260507120011 74 204 4.0 7.0 0.00 0.26 0.26 46 1013.9
20260507115502 74 113 2.0 3.0 0.00 0.26 0.26 48 1013.9
20260507115011 74 18 1.0 4.0 0.00 0.26 0.26 51 1013.9
20260507114502 73 158 0.0 5.0 0.00 0.26 0.26 50 1013.9
20260507114305 73 182 3.0 7.0 0.00 0.26 0.26 50 1014.0
20260507113507 73 16 1.0 9.0 0.00 0.26 0.26 51 1014.2
20260507113001 72 151 2.0 10.0 0.00 0.26 0.26 52 1014.2
20260507112510 72 147 6.0 10.0 0.00 0.26 0.26 50 1014.3
20260507112002 72 176 4.0 7.0 0.00 0.26 0.26 52 1014.4
20260507111812 71 179 4.0 12.0 0.00 0.26 0.26 54 1014.4
20260507111004 71 161 4.0 12.0 0.00 0.26 0.26 53 1014.4
20260507110508 72 144 4.0 9.0 0.00 0.26 0.26 54 1014.5
20260507110011 72 89 2.0 5.0 0.00 0.26 0.26 56 1014.5
20260507105509 71 151 3.0 9.0 0.00 0.26 0.26 56 1014.5
20260507105001 71 147 5.0 10.0 0.00 0.26 0.26 56 1014.6
20260507104459 71 195 5.0 14.0 0.00 0.26 0.26 57 1014.8
20260507104001 71 154 7.0 14.0 0.00 0.26 0.26 57 1014.8
20260507103500 71 204 6.0 14.0 0.00 0.26 0.26 56 1014.8
20260507103002 71 169 8.0 14.0 0.00 0.26 0.26 56 1014.7
20260507102502 71 159 7.0 14.0 0.00 0.26 0.26 56 1014.5
20260507102257 71 172 6.0 14.0 0.00 0.26 0.26 61 1014.5
20260507101500 71 134 8.0 13.0 0.00 0.26 0.26 61 1014.5
20260507101304 70 182 6.0 13.0 0.00 0.26 0.26 63 1014.5
20260507100501 70 171 8.0 12.0 0.00 0.26 0.26 62 1014.6
20260507100000 70 145 7.0 11.0 0.00 0.26 0.26 62 1014.6
20260507095459 70 206 5.0 10.0 0.00 0.26 0.26 63 1014.6
20260507094959 70 125 5.0 11.0 0.00 0.26 0.26 63 1014.7
20260507094500 70 188 6.0 11.0 0.00 0.26 0.26 63 1014.7
20260507093959 69 237 3.0 10.0 0.00 0.26 0.26 65 1014.7
20260507093500 69 219 6.0 10.0 0.00 0.26 0.26 64 1014.8
20260507093259 69 213 4.0 10.0 0.00 0.26 0.26 65 1014.6
20260507092459 69 237 3.0 10.0 0.00 0.26 0.26 64 1014.6
20260507092117 68 186 7.0 11.0 0.00 0.26 0.26 65 1014.7
20260507092043 68 238 2.0 11.0 0.00 0.26 0.26 65 1014.6
20260507090959 68 175 5.0 10.0 0.00 0.26 0.26 65 1014.8
20260507090459 69 165 5.0 10.0 0.00 0.26 0.26 65 1014.7
20260507090000 69 266 3.0 6.0 0.00 0.26 0.26 66 1014.7
20260507085803 68 264 1.0 6.0 0.00 0.26 0.26 67 1014.8
20260507085000 68 241 4.0 6.0 0.00 0.26 0.26 68 1014.9
20260507084453 67 243 1.0 6.0 0.00 0.26 0.26 69 1014.8
20260507083949 67 289 3.0 6.0 0.00 0.26 0.26 68 1014.8
20260507083449 66 331 2.0 10.0 0.00 0.26 0.26 69 1014.9
20260507082947 66 298 4.0 10.0 0.00 0.26 0.26 67 1015.2
20260507082448 67 286 4.0 9.0 0.00 0.26 0.26 69 1015.2
20260507081947 67 343 4.0 10.0 0.00 0.26 0.26 71 1015.1
20260507081446 67 334 4.0 10.0 0.00 0.26 0.26 68 1014.9
20260507080949 67 276 1.0 3.0 0.00 0.26 0.26 70 1014.9
20260507080446 66 276 1.0 3.0 0.00 0.26 0.26 71 1014.9
20260507075942 66 251 2.0 3.0 0.00 0.26 0.26 71 1014.9
20260507075443 66 206 0.0 0.0 0.00 0.26 0.26 72 1014.8
20260507075244 66 213 0.0 1.0 0.00 0.26 0.26 73 1014.9
20260507074438 65 100 0.0 2.0 0.00 0.26 0.26 75 1014.9
20260507073939 64 100 1.0 3.0 0.00 0.26 0.26 76 1014.9
20260507073742 63 100 2.0 3.0 0.00 0.26 0.26 77 1014.9
20260507072935 63 48 1.0 3.0 0.00 0.26 0.26 79 1014.9
20260507072433 62 48 1.0 3.0 0.00 0.26 0.26 80 1015.1
20260507071933 62 48 0.0 3.0 0.00 0.26 0.26 81 1015.1
20260507071433 62 188 0.0 2.0 0.00 0.26 0.26 82 1015.1
20260507070933 61 188 0.0 3.0 0.00 0.26 0.26 83 1014.9
20260507070432 60 188 2.0 3.0 0.00 0.26 0.26 84 1015.1
20260507065931 60 110 0.0 3.0 0.00 0.26 0.26 86 1014.9
20260507065431 60 110 0.0 3.0 0.00 0.26 0.26 87 1014.9
20260507064931 60 141 2.0 4.0 0.00 0.26 0.26 87 1014.9
20260507064432 60 138 1.0 4.0 0.00 0.26 0.26 89 1014.8
20260507063933 60 113 1.0 3.0 0.00 0.26 0.26 89 1014.8
20260507063431 59 124 1.0 3.0 0.00 0.26 0.26 90 1014.8
20260507062931 58 134 1.0 3.0 0.00 0.26 0.26 90 1014.9
20260507062431 58 281 0.0 3.0 0.00 0.26 0.26 89 1014.8
20260507061931 58 281 0.0 3.0 0.00 0.26 0.26 90 1014.8
20260507061431 58 281 0.0 2.0 0.00 0.26 0.26 90 1014.9
20260507060932 57 281 0.0 1.0 0.00 0.26 0.26 90 1014.9
20260507060431 57 281 0.0 1.0 0.00 0.26 0.26 90 1015.1
20260507055930 57 281 0.0 0.0 0.00 0.26 0.26 90 1015.1
20260507055432 57 281 0.0 2.0 0.00 0.26 0.26 90 1015.1
20260507054930 57 281 0.0 2.0 0.00 0.26 0.26 89 1015.1
20260507054431 57 281 2.0 2.0 0.00 0.26 0.26 89 1014.9
20260507053930 56 281 0.0 0.0 0.00 0.26 0.26 90 1014.8
20260507053431 56 281 0.0 0.0 0.00 0.26 0.26 90 1014.8
20260507052932 56 281 0.0 0.0 0.00 0.26 0.26 89 1014.7
20260507052432 56 281 0.0 1.0 0.00 0.26 0.26 89 1014.7
20260507052237 56 281 0.0 3.0 0.00 0.26 0.26 89 1014.6
20260507051734 56 281 0.0 3.0 0.00 0.26 0.26 89 1014.6
20260507051236 55 281 0.0 3.0 0.00 0.26 0.26 89 1014.6
20260507050430 55 281 0.0 3.0 0.00 0.26 0.26 89 1014.5
20260507050235 55 281 1.0 3.0 0.00 0.26 0.26 89 1014.5
20260507045429 55 281 1.0 4.0 0.00 0.26 0.26 90 1014.4
20260507044928 55 281 1.0 6.0 0.00 0.26 0.26 90 1014.4
20260507044427 55 309 3.0 6.0 0.00 0.26 0.26 90 1014.3
20260507043928 55 282 3.0 4.0 0.00 0.26 0.26 90 1014.3
20260507043426 55 283 0.0 3.0 0.00 0.26 0.26 90 1014.3
20260507042925 55 283 2.0 3.0 0.00 0.26 0.26 90 1014.2
20260507042426 55 279 1.0 4.0 0.00 0.26 0.26 89 1014.3
20260507041924 55 168 1.0 4.0 0.00 0.26 0.26 90 1014.4
20260507041423 55 286 2.0 4.0 0.00 0.26 0.26 89 1014.3
20260507040924 55 324 1.0 4.0 0.00 0.26 0.26 89 1014.3
20260507040421 55 202 0.0 5.0 0.00 0.26 0.26 89 1014.3
20260507035921 55 202 3.0 5.0 0.00 0.26 0.26 89 1014.3
20260507035421 55 179 2.0 6.0 0.00 0.26 0.26 89 1014.2
20260507034919 56 288 4.0 6.0 0.00 0.26 0.26 89 1014.1
20260507034421 56 299 4.0 6.0 0.00 0.26 0.26 89 1014.2
20260507033919 56 289 3.0 6.0 0.00 0.26 0.26 89 1014.3
20260507033418 56 286 3.0 9.0 0.00 0.26 0.26 88 1014.3
20260507032918 56 252 4.0 9.0 0.00 0.26 0.26 88 1014.3
20260507032417 56 197 4.0 7.0 0.01 0.26 0.26 88 1014.3
20260507031916 56 140 3.0 4.0 0.01 0.26 0.26 88 1014.3
20260507031415 56 159 3.0 4.0 0.01 0.26 0.26 88 1014.3
20260507030916 56 285 0.0 4.0 0.02 0.26 0.26 88 1014.5
20260507030412 56 285 2.0 5.0 0.02 0.26 0.26 88 1014.4
20260507025918 56 300 3.0 5.0 0.02 0.24 0.26 87 1014.5
20260507025413 56 298 2.0 5.0 0.02 0.24 0.26 87 1014.6
20260507024912 57 320 3.0 6.0 0.02 0.24 0.26 87 1014.5
20260507024721 56 202 4.0 9.0 0.03 0.24 0.26 87 1014.6
20260507023910 57 216 5.0 9.0 0.03 0.24 0.26 87 1014.8
20260507023411 57 243 4.0 7.0 0.04 0.24 0.26 87 1015.1
20260507022909 56 251 5.0 7.0 0.05 0.24 0.26 87 1015.1
20260507022410 56 261 4.0 7.0 0.05 0.24 0.25 87 1015.1
20260507021909 56 216 4.0 12.0 0.06 0.24 0.25 87 1015.1
20260507021409 56 216 6.0 12.0 0.06 0.24 0.25 87 1015.1
20260507020907 56 199 6.0 11.0 0.06 0.24 0.24 87 1015.2
20260507020405 57 192 8.0 11.0 0.07 0.24 0.24 87 1014.9
20260507015905 57 220 4.0 7.0 0.08 0.17 0.24 88 1014.8
20260507015405 56 265 2.0 7.0 0.08 0.17 0.24 88 1014.6
20260507014903 56 258 3.0 10.0 0.08 0.17 0.24 88 1014.7
20260507014404 56 209 5.0 13.0 0.08 0.17 0.23 88 1014.7
20260507013903 56 210 6.0 13.0 0.09 0.17 0.22 87 1014.8
20260507013720 56 186 6.0 11.0 0.09 0.17 0.22 87 1014.8
20260507012905 56 216 4.0 7.0 0.08 0.17 0.21 87 1014.9
20260507012404 56 226 4.0 7.0 0.09 0.17 0.20 87 1014.8
20260507011904 56 259 2.0 6.0 0.09 0.17 0.20 87 1014.8
20260507011711 56 300 1.0 3.0 0.09 0.17 0.19 87 1014.8
20260507010903 56 299 1.0 3.0 0.09 0.17 0.18 87 1014.8
20260507010403 56 169 1.0 3.0 0.10 0.17 0.17 86 1014.8
20260507005902 56 258 1.0 6.0 0.10 0.06 0.17 86 1014.7
20260507005403 56 217 3.0 6.0 0.10 0.06 0.16 86 1014.9
20260507004905 56 220 2.0 5.0 0.11 0.06 0.16 85 1014.8
20260507004403 56 243 2.0 3.0 0.10 0.06 0.15 85 1014.8
20260507003902 56 252 0.0 3.0 0.10 0.06 0.14 85 1014.9
20260507003722 56 186 0.0 3.0 0.09 0.06 0.13 85 1015.1
20260507002902 55 157 0.0 6.0 0.10 0.06 0.13 85 1015.1
20260507002403 55 157 1.0 7.0 0.09 0.06 0.12 85 1015.3
20260507001902 55 212 4.0 7.0 0.07 0.06 0.10 86 1015.4
20260507001402 55 231 0.0 3.0 0.07 0.06 0.09 85 1015.4
20260507000908 55 265 2.0 3.0 0.06 0.06 0.09 85 1015.4
20260507000402 55 265 1.0 4.0 0.05 0.06 0.07 84 1015.4
20260506235902 55 265 2.0 4.0 0.05 0.02 0.06 84 1015.3
20260506235401 55 228 0.0 3.0 0.04 0.02 0.06 84 1015.4
20260506234904 55 196 0.0 2.0 0.03 0.02 0.05 84 1015.4
20260506234402 55 196 0.0 3.0 0.04 0.02 0.05 83 1015.4
20260506233902 55 196 0.0 3.0 0.03 0.02 0.04 83 1015.4
20260506233402 55 196 0.0 2.0 0.03 0.02 0.04 83 1015.5
20260506232903 55 196 0.0 4.0 0.03 0.02 0.03 82 1015.5
20260506232402 55 196 1.0 4.0 0.03 0.02 0.03 82 1015.5
20260506231902 55 220 2.0 5.0 0.03 0.02 0.03 81 1015.7
20260506231402 56 193 2.0 5.0 0.02 0.02 0.02 81 1015.7
20260506230902 56 258 0.0 0.0 0.02 0.02 0.02 80 1015.6
20260506230402 56 258 0.0 2.0 0.02 0.02 0.02 80 1015.7
20260506225902 56 258 0.0 2.0 0.02 0.00 0.02 79 1015.8
20260506225403 56 258 0.0 2.0 0.02 0.00 0.02 78 1015.9
20260506224905 56 258 1.0 2.0 0.02 0.00 0.02 77 1016.0
20260506224402 57 247 0.0 2.0 0.01 0.00 0.01 76 1016.0
20260506223902 57 247 0.0 3.0 0.01 0.00 0.01 75 1016.0
20260506223402 57 247 1.0 3.0 0.01 0.00 0.01 74 1016.1
20260506222906 58 214 0.0 5.0 0.00 0.00 0.00 72 1016.0
20260506222402 58 227 2.0 6.0 0.00 0.00 0.00 71 1016.1
20260506221902 58 228 1.0 6.0 0.00 0.00 0.00 71 1016.0
20260506221402 58 237 2.0 5.0 0.00 0.00 0.00 71 1016.1
20260506220902 57 237 2.0 5.0 0.00 0.00 0.00 71 1015.9
20260506220408 57 223 2.0 6.0 0.00 0.00 0.00 71 1015.9
20260506220208 57 216 2.0 6.0 0.00 0.00 0.00 71 1016.0
20260506215402 57 231 1.0 4.0 0.00 0.00 0.00 69 1016.0
20260506214902 57 223 2.0 4.0 0.00 0.00 0.00 69 1016.0
20260506214403 57 275 0.0 5.0 0.00 0.00 0.00 70 1016.0
20260506213902 57 275 1.0 5.0 0.00 0.00 0.00 69 1016.0
20260506213401 57 285 2.0 5.0 0.00 0.00 0.00 70 1015.9
20260506212903 57 279 3.0 5.0 0.00 0.00 0.00 70 1016.0
20260506212713 57 240 2.0 5.0 0.00 0.00 0.00 71 1015.9
20260506212031 57 257 3.0 6.0 0.00 0.00 0.00 71 1016.0
20260506211953 57 255 2.0 6.0 0.00 0.00 0.00 71 1015.9
20260506210902 57 251 3.0 6.0 0.00 0.00 0.00 72 1016.0
20260506210402 57 216 3.0 9.0 0.00 0.00 0.00 71 1016.2
20260506205902 57 247 3.0 9.0 0.00 0.00 0.00 72 1016.0
20260506205402 57 269 3.0 7.0 0.00 0.00 0.00 72 1016.1
20260506204902 57 276 3.0 9.0 0.00 0.00 0.00 71 1016.2
20260506204402 57 275 5.0 9.0 0.00 0.00 0.00 72 1016.2
20260506203905 57 264 3.0 9.0 0.00 0.00 0.00 72 1016.2
20260506203403 57 234 3.0 9.0 0.00 0.00 0.00 72 1016.3
20260506202903 57 238 3.0 9.0 0.00 0.00 0.00 71 1016.4
20260506202403 58 248 4.0 9.0 0.00 0.00 0.00 71 1016.5
20260506201901 58 216 4.0 13.0 0.00 0.00 0.00 69 1016.6
20260506201518 59 259 3.0 9.0 0.00 0.00 0.00 70 1016.6
20260506201447 58 248 7.0 13.0 0.00 0.00 0.00 68 1016.6
20260506200404 59 224 4.0 12.0 0.00 0.00 0.00 69 1016.6
20260506195902 60 293 5.0 14.0 0.00 0.00 0.00 68 1016.5
20260506195401 60 292 6.0 15.0 0.00 0.00 0.00 67 1016.5
20260506194902 60 289 7.0 15.0 0.00 0.00 0.00 66 1016.6
20260506194404 60 278 6.0 14.0 0.00 0.00 0.00 65 1016.7
20260506194024 61 250 9.0 17.0 0.00 0.00 0.00 65 1016.4
20260506193949 61 259 9.0 17.0 0.00 0.00 0.00 65 1016.6
20260506192902 61 224 3.0 13.0 0.00 0.00 0.00 66 1016.4
20260506192710 61 303 3.0 11.0 0.00 0.00 0.00 66 1016.3
20260506191902 61 265 4.0 10.0 0.00 0.00 0.00 65 1016.2
20260506191403 61 283 5.0 9.0 0.00 0.00 0.00 65 1016.0
20260506190902 61 272 4.0 9.0 0.00 0.00 0.00 66 1015.9
20260506190403 61 292 2.0 10.0 0.00 0.00 0.00 66 1015.9
20260506190205 62 271 4.0 10.0 0.00 0.00 0.00 66 1015.8
20260506185403 62 289 4.0 9.0 0.00 0.00 0.00 65 1015.6
20260506185202 62 274 2.0 7.0 0.00 0.00 0.00 64 1015.6
20260506184403 62 306 3.0 7.0 0.00 0.00 0.00 64 1015.5
20260506183902 62 245 3.0 6.0 0.00 0.00 0.00 63 1015.4
20260506183403 62 244 2.0 5.0 0.00 0.00 0.00 63 1015.4
20260506182902 62 228 3.0 5.0 0.00 0.00 0.00 64 1015.3
20260506182403 62 265 2.0 5.0 0.00 0.00 0.00 65 1015.3
20260506181902 62 288 2.0 10.0 0.00 0.00 0.00 64 1015.3
20260506181401 62 283 4.0 10.0 0.00 0.00 0.00 63 1015.2
20260506180902 62 268 3.0 10.0 0.00 0.00 0.00 62 1015.1
20260506180402 62 264 3.0 9.0 0.00 0.00 0.00 61 1015.1
20260506175903 62 268 3.0 6.0 0.00 0.00 0.00 61 1015.1
20260506175404 63 283 2.0 6.0 0.00 0.00 0.00 61 1014.9
20260506174902 63 262 2.0 11.0 0.00 0.00 0.00 60 1014.9
20260506174402 63 316 3.0 11.0 0.00 0.00 0.00 59 1014.9
20260506173904 63 244 3.0 6.0 0.00 0.00 0.00 60 1014.8
20260506173402 63 248 3.0 9.0 0.00 0.00 0.00 60 1014.9
20260506172903 63 262 3.0 9.0 0.00 0.00 0.00 60 1014.8
20260506172402 64 265 3.0 6.0 0.00 0.00 0.00 60 1014.8
20260506171902 64 255 3.0 9.0 0.00 0.00 0.00 59 1014.8
20260506171407 64 250 5.0 9.0 0.00 0.00 0.00 59 1014.7
20260506171210 64 251 4.0 7.0 0.00 0.00 0.00 59 1014.7
20260506170402 64 238 2.0 10.0 0.00 0.00 0.00 59 1014.8
20260506165902 64 255 3.0 10.0 0.00 0.00 0.00 58 1014.8
20260506165717 64 248 5.0 13.0 0.00 0.00 0.00 58 1014.9
20260506164902 64 233 8.0 13.0 0.00 0.00 0.00 58 1014.9
20260506164402 64 254 6.0 12.0 0.00 0.00 0.00 59 1014.9
20260506164028 65 230 5.0 14.0 0.00 0.00 0.00 59 1015.1
20260506163949 65 216 7.0 14.0 0.00 0.00 0.00 58 1015.1
20260506162903 65 276 7.0 14.0 0.00 0.00 0.00 57 1014.9
20260506162402 65 268 6.0 13.0 0.00 0.00 0.00 58 1014.9
20260506161902 65 200 6.0 13.0 0.00 0.00 0.00 58 1014.9
20260506161403 66 257 4.0 11.0 0.00 0.00 0.00 58 1015.1
20260506160901 66 275 4.0 11.0 0.00 0.00 0.00 59 1015.1
20260506160403 66 275 4.0 12.0 0.00 0.00 0.00 59 1014.9
20260506160037 66 266 5.0 13.0 0.00 0.00 0.00 59 1015.1
20260506155953 66 268 6.0 12.0 0.00 0.00 0.00 59 1015.1
20260506154902 66 289 8.0 14.0 0.00 0.00 0.00 58 1015.1
20260506154402 66 237 7.0 16.0 0.00 0.00 0.00 59 1015.1
20260506153903 66 278 9.0 16.0 0.00 0.00 0.00 59 1015.1
20260506153404 67 269 7.0 14.0 0.00 0.00 0.00 57 1014.9